Carnival Valor — H3VR — position and weather

sailwx.info

Track history (hours):
 
Tides and Currents Weather Stations Pressure Air Temp Water Temp Dewpoint Dewpoint Depression Visibility Wind Speed Wind Dir Waves Ship Positions

Carnival Valor

Last reported at 2017-Mar-23 12:00 UTC. Time now 2017-Mar-23 23:57 UTC.
Position N 21°42' W 089°18'.

Type: Ship. MMSI: 354298000.

Wind from 070 at 10 knots

Barometer 1016.0 mb
Air temperature 21.0 ° C
Visibility: greater than 10.8 NM
Dewpoint 17.8 ° C
Water temperature 24.0 ° C

Date/timePositionNaut miles runAvg speedWind from/ knotsBaromVisibWave heightAir tempDewpointWater temp
2017-Mar-23 12:00N 21°42' W 089°18'14711.8 070 / 101016.010.8 21.017.824.0
2017-Mar-22 23:34N 20°31' W 086°60'3 2.6
2017-Mar-22 22:31N 20°29' W 086°59'0 0.0
2017-Mar-22 21:31N 20°29' W 086°59'0 0.0
2017-Mar-22 20:33N 20°29' W 086°59'0 0.0
2017-Mar-22 19:33N 20°29' W 086°59'0 0.0
2017-Mar-22 18:33N 20°29' W 086°59'0 0.0
2017-Mar-22 17:32N 20°29' W 086°59'0 0.0
2017-Mar-22 16:32N 20°29' W 086°59'0 0.0
2017-Mar-22 15:31N 20°29' W 086°59'0 0.0
2017-Mar-22 14:31N 20°29' W 086°59'0 0.1
2017-Mar-22 13:33N 20°29' W 086°59'9 8.7
2017-Mar-22 12:34N 20°37' W 086°57'916.6
2017-Mar-22 12:00N 20°42' W 086°48'41617.3 070 / 101015.010.8 26.021.527.0
2017-Mar-21 12:00N 26°24' W 091°06'19019.2 190 / 111016.010.8 24.021.024.0
2017-Mar-21 02:04N 28°39' W 093°36'1019.2
2017-Mar-21 01:32N 28°45' W 093°46'1818.7
2017-Mar-21 00:33N 28°56' W 094°03'2016.1
2017-Mar-20 23:19N 29°07' W 094°22'1615.7
2017-Mar-20 22:17N 29°17' W 094°36'912.5
2017-Mar-20 21:34N 29°21' W 094°46'2 1.0
2017-Mar-20 19:13N 29°19' W 094°48'0 0.0
2017-Mar-20 16:29N 29°19' W 094°48'0 0.0
2017-Mar-20 15:29N 29°19' W 094°48'0 0.1
2017-Mar-20 12:32N 29°19' W 094°47'7113.7
2017-Mar-20 07:22N 28°42' W 093°38'38319.8
2017-Mar-19 12:00N 24°00' W 088°48'23218.7 050 / 151018.010.8 25.020.524.0
2017-Mar-18 23:33N 20°30' W 086°60'2 1.9
2017-Mar-18 22:31N 20°29' W 086°59'0 0.0
2017-Mar-18 21:33N 20°29' W 086°59'0 0.0
2017-Mar-18 20:33N 20°29' W 086°59'0 0.0
2017-Mar-18 19:33N 20°29' W 086°59'0 0.0
2017-Mar-18 18:32N 20°29' W 086°59'0 0.0
2017-Mar-18 17:32N 20°29' W 086°59'0 0.0
2017-Mar-18 16:32N 20°29' W 086°59'0 0.0
2017-Mar-18 15:31N 20°29' W 086°59'0 0.0
2017-Mar-18 14:33N 20°29' W 086°59'0 0.1
2017-Mar-18 13:33N 20°29' W 086°59'9 9.4
2017-Mar-18 12:33N 20°38' W 086°56'915.6
2017-Mar-18 12:00N 20°42' W 086°48'41917.5 060 / 191018.010.8 28.023.727.0
2017-Mar-17 12:00N 26°24' W 091°12'25917.9 160 / 211020.010.8 24.021.023.0
2017-Mar-16 21:33N 29°20' W 094°47'1 0.1
2017-Mar-16 12:32N 29°19' W 094°48'34914.2
2017-Mar-15 12:00N 24°12' W 091°42'204 8.5 060 / 161019.010.8 26.023.125.0
2017-Mar-14 12:00N 21°42' W 089°12'14312.1 360 / 281014.010.8 26.021.525.0
2017-Mar-14 00:12N 20°42' W 086°53'1219.2
2017-Mar-13 23:33N 20°32' W 087°00'3 3.2
2017-Mar-13 22:32N 20°29' W 086°59'0 0.0
2017-Mar-13 21:32N 20°29' W 086°59'0 0.0
2017-Mar-13 20:32N 20°29' W 086°59'0 0.0
2017-Mar-13 19:31N 20°29' W 086°59'0 0.0
2017-Mar-13 18:31N 20°29' W 086°59'0 0.0
2017-Mar-13 17:34N 20°29' W 086°59'0 0.0
2017-Mar-13 16:32N 20°29' W 086°59'0 0.0
2017-Mar-13 15:32N 20°29' W 086°59'0 0.0
2017-Mar-13 14:32N 20°29' W 086°59'0 0.0
2017-Mar-13 13:31N 20°29' W 086°59'7 7.3
2017-Mar-13 12:33N 20°36' W 086°58'  
Track history (hours):
 
Tides and Currents Weather Stations Pressure Air Temp Water Temp Dewpoint Dewpoint Depression Visibility Wind Speed Wind Dir Waves Ship Positions

Carnival Valor

Last reported at 2017-Mar-23 12:00 UTC. Time now 2017-Mar-23 23:57 UTC.
Position N 21°42' W 089°18'.

Type: Ship. MMSI: 354298000.

Wind from 070 at 10 knots

Barometer 1016.0 mb
Air temperature 21.0 ° C
Visibility: greater than 10.8 NM
Dewpoint 17.8 ° C
Water temperature 24.0 ° C

Date/timePositionNaut miles runAvg speedWind from/ knotsBaromVisibWave heightAir tempDewpointWater temp
2017-Mar-23 12:00N 21°42' W 089°18'14711.8 070 / 101016.010.8 21.017.824.0
2017-Mar-22 23:34N 20°31' W 086°60'3 2.6
2017-Mar-22 22:31N 20°29' W 086°59'0 0.0
2017-Mar-22 21:31N 20°29' W 086°59'0 0.0
2017-Mar-22 20:33N 20°29' W 086°59'0 0.0
2017-Mar-22 19:33N 20°29' W 086°59'0 0.0
2017-Mar-22 18:33N 20°29' W 086°59'0 0.0
2017-Mar-22 17:32N 20°29' W 086°59'0 0.0
2017-Mar-22 16:32N 20°29' W 086°59'0 0.0
2017-Mar-22 15:31N 20°29' W 086°59'0 0.0
2017-Mar-22 14:31N 20°29' W 086°59'0 0.1
2017-Mar-22 13:33N 20°29' W 086°59'9 8.7
2017-Mar-22 12:34N 20°37' W 086°57'916.6
2017-Mar-22 12:00N 20°42' W 086°48'41617.3 070 / 101015.010.8 26.021.527.0
2017-Mar-21 12:00N 26°24' W 091°06'19019.2 190 / 111016.010.8 24.021.024.0
2017-Mar-21 02:04N 28°39' W 093°36'1019.2
2017-Mar-21 01:32N 28°45' W 093°46'1818.7
2017-Mar-21 00:33N 28°56' W 094°03'2016.1
2017-Mar-20 23:19N 29°07' W 094°22'1615.7
2017-Mar-20 22:17N 29°17' W 094°36'912.5
2017-Mar-20 21:34N 29°21' W 094°46'2 1.0
2017-Mar-20 19:13N 29°19' W 094°48'0 0.0
2017-Mar-20 16:29N 29°19' W 094°48'0 0.0
2017-Mar-20 15:29N 29°19' W 094°48'0 0.1
2017-Mar-20 12:32N 29°19' W 094°47'7113.7
2017-Mar-20 07:22N 28°42' W 093°38'38319.8
2017-Mar-19 12:00N 24°00' W 088°48'23218.7 050 / 151018.010.8 25.020.524.0
2017-Mar-18 23:33N 20°30' W 086°60'2 1.9
2017-Mar-18 22:31N 20°29' W 086°59'0 0.0
2017-Mar-18 21:33N 20°29' W 086°59'0 0.0
2017-Mar-18 20:33N 20°29' W 086°59'0 0.0
2017-Mar-18 19:33N 20°29' W 086°59'0 0.0
2017-Mar-18 18:32N 20°29' W 086°59'0 0.0
2017-Mar-18 17:32N 20°29' W 086°59'0 0.0
2017-Mar-18 16:32N 20°29' W 086°59'0 0.0
2017-Mar-18 15:31N 20°29' W 086°59'0 0.0
2017-Mar-18 14:33N 20°29' W 086°59'0 0.1
2017-Mar-18 13:33N 20°29' W 086°59'9 9.4
2017-Mar-18 12:33N 20°38' W 086°56'915.6
2017-Mar-18 12:00N 20°42' W 086°48'41917.5 060 / 191018.010.8 28.023.727.0
2017-Mar-17 12:00N 26°24' W 091°12'25917.9 160 / 211020.010.8 24.021.023.0
2017-Mar-16 21:33N 29°20' W 094°47'1 0.1
2017-Mar-16 12:32N 29°19' W 094°48'34914.2
2017-Mar-15 12:00N 24°12' W 091°42'204 8.5 060 / 161019.010.8 26.023.125.0
2017-Mar-14 12:00N 21°42' W 089°12'14312.1 360 / 281014.010.8 26.021.525.0
2017-Mar-14 00:12N 20°42' W 086°53'1219.2
2017-Mar-13 23:33N 20°32' W 087°00'3 3.2
2017-Mar-13 22:32N 20°29' W 086°59'0 0.0
2017-Mar-13 21:32N 20°29' W 086°59'0 0.0
2017-Mar-13 20:32N 20°29' W 086°59'0 0.0
2017-Mar-13 19:31N 20°29' W 086°59'0 0.0
2017-Mar-13 18:31N 20°29' W 086°59'0 0.0
2017-Mar-13 17:34N 20°29' W 086°59'0 0.0
2017-Mar-13 16:32N 20°29' W 086°59'0 0.0
2017-Mar-13 15:32N 20°29' W 086°59'0 0.0
2017-Mar-13 14:32N 20°29' W 086°59'0 0.0
2017-Mar-13 13:31N 20°29' W 086°59'7 7.3
2017-Mar-13 12:33N 20°36' W 086°58'  

Dump ship's entire track history